Monte Terminillo, Italy

5:27 AM CEST on May 28, 2017 (GMT +0200)
Monte Terminillo

Weather History for LIRK - December, 2012

Change the Weather History Date:

Sunday, December 23, 2012

  Actual Average Record
Temperature  
Mean Temperature 34 °F -  
Max Temperature 39 °F 32 °F 52 °F (2014)
Min Temperature 28 °F 24 °F 6 °F (2003)
Degree Days  
Heating Degree Days 32    
Moisture  
Dew Point 30 °F    
Average Humidity 90    
Maximum Humidity 100    
Minimum Humidity 70    
Precipitation  
Precipitation 0.00 in -13.12 in - ()
Sea Level Pressure  
Sea Level Pressure 30.10 in    
Wind  
Wind Speed 6 mph ()    
Max Wind Speed 16 mph    
Max Gust Speed -    
Visibility 4.9 miles    
Events Fog    
Averages and records for this station are not official NWS values.
T = Trace of Precipitation, MM = Missing Value Source: Averaged Metar Reports

Daily Weather History Graph

Daily Weather History Graph

Search for Another Location

Airport or City:

Trip Planner

Search our weather history database for the weather conditions in past years. The results will help you decide how hot, cold, wet, or windy it might be!

Date:

Astronomy

Dec. 23, 2012 Rise Set
Actual Time 7:35 AM CET 4:39 PM CET
Civil Twilight 7:03 AM CET 5:11 PM CET
Nautical Twilight 6:27 AM CET 5:46 PM CET
Astronomical Twilight 5:53 AM CET 6:21 PM CET
Moon 1:22 PM CET (12/23) 2:58 AM CET (12/23)
Length of Visible Light 10h 08m
Length of Day
9h 03m
Waxing Gibbous, 79% of the Moon is Illuminated
Dec 23
Waxing Gibbous
Dec 28
Full
Jan 5
Last Quarter
Jan 11
New
Jan 19
First Quarter

Hourly Weather History & Observations

Time (CET) Temp. Dew Point Humidity Pressure Visibility Wind Dir Wind Speed Gust Speed Precip Events Conditions
12:55 AM 30.2 °F 24.8 °F 80% 30.09 in - North - - N/A   Clear
1:00 AM 30 °F 24 °F 70%  in 12 mi NNE 9.2 mph - -  
1:55 AM 30.2 °F 24.8 °F 80% 30.09 in - North - - N/A   Clear
2:55 AM 28.4 °F 24.8 °F 86% 30.06 in - North - - N/A   Clear
3:55 AM 28.4 °F 28.4 °F 100% 30.06 in - North - - N/A   Clear
4:55 AM 28.4 °F 28.4 °F 100% 30.06 in - North - - N/A   Clear
5:55 AM 28.4 °F 28.4 °F 100% 30.06 in - North - - N/A   Clear
7:00 AM 29 °F 26 °F 85%  in 12 mi Calm Calm - -  
7:55 AM 28.4 °F 23.0 °F 80% 30.06 in - North - - N/A   Clear
8:55 AM 28.4 °F 24.8 °F 86% 30.06 in - North - - N/A   Clear
9:55 AM 30.2 °F 26.6 °F 86% 30.09 in - North - - N/A   Clear
10:55 AM 30.2 °F 30.2 °F 100% 30.09 in - North - - N/A   Clear
11:55 AM 30.2 °F 30.2 °F 100% 30.09 in - North - - N/A   Clear
12:55 PM 32.0 °F 32.0 °F 100% 30.09 in - North - - N/A   Mostly Cloudy
1:00 PM 32 °F 32 °F 100%  in 6 mi WSW 9.2 mph - -  
1:55 PM 33.8 °F 33.8 °F 100% 30.09 in 0.0 mi North - - N/A Fog Fog
2:55 PM 33.8 °F 33.8 °F 100% 30.09 in 0.0 mi North - - N/A Fog Fog
3:55 PM 33.8 °F 33.8 °F 100% 30.09 in 0.0 mi North - - N/A Fog Fog
4:55 PM 33.8 °F 33.8 °F 100% 30.09 in 0.0 mi North - - N/A Fog Fog
5:55 PM 33.8 °F 33.8 °F 100% 30.12 in - North - - N/A   Clear
6:55 PM 35.6 °F 32.0 °F 87% 30.12 in - North - - N/A   Clear
7:00 PM 36 °F 32 °F 79%  in 9 mi WSW 16.1 mph - -  
7:55 PM 37.4 °F 32.0 °F 81% 30.12 in - North - - N/A   Clear
8:55 PM 39.2 °F 32.0 °F 75% 30.15 in - North - - N/A   Clear
9:55 PM 39.2 °F 33.8 °F 81% 30.18 in - North - - N/A   Clear
11:55 PM 39.2 °F 33.8 °F 81% 30.21 in - North - - N/A   Clear